Location: Härggis
(46.9540°N, 8.4897°E)
Time: 13:28:53
(UTC+00:00)

SL-16 R/B - Pass Details

Date: 07 October 2022
Orbit: 985 x 1007 km, 99.6° (Epoch: 26 November)

Event Time Altitude Azimuth Distance (km) Brightness Sun altitude
Exits shadow 01:08:44 19° 352° (N) 2,187 4.6 -41.7°
Drops below altitude 10° 01:10:21 10° 349° (N) 2,780 5.2 -41.5°
Sets 01:12:51 0° 347° (NNW) 3,737 5.9 -41.3°
